Weather in Arshan Zelmen

Russia / Republic of Kalmykia     47°36′34″N   44°36′58″E
temp.,
°C
wind,
m/s
gust,
m/s
humid.,
%
clouds,
%
prec.,
mm/h
press.,
hPa
HPBL,
m
23 april, fri
fri2300:00+14sw2362100 0.0 102276
03:00+12wnw6882100 0.2 1022281
06:00+11nw5883100 0.1 1022389
09:00+11w2386100 0.9 1022335
12:00+14w356697 2.6 10211186
15:00+16wnw8105141 3.0 10201942
18:00+15wnw58593 0.0 1020568
21:00+11wnw33765 0.0 102027
24 april, sat
sat2400:00+10w337742 0.0 101942
03:00+10wsw4678100 0.0 101894
06:00+11wsw4776100 0.0 1018185
09:00+13wsw7868100 0.1 10181099
12:00+13wsw71265100 0.2 10171508
15:00+16wsw9125246 0.3 10161726
18:00+14w812705 0.3 10161064
21:00+9wnw49790 0.3 1019392
25 april, sun
sun2500:00+7wsw49805 0.0 1020183
03:00+7wsw598394 0.0 1021269
06:00+6wnw3679100 0.0 1022231
09:00+10nw454711 0.0 1022996
12:00+12wnw453689 0.0 10221492
15:00+14wnw3333100 0.0 10201616
18:00+13n2239100 0.0 1020294
21:00+11ne3645100 0.0 1019274
26 april, mon
mon2600:00+8ese3571100 1.1 1019361
03:00+6ene5890100 4.8 1018430
06:00+6ene6891100 1.4 1017413
09:00+7ene4592100 1.9 1016380
12:00+7ne5592100 0.9 1015388
15:00+7ne4493100 2.4 1014352
18:00+7ne3394100 2.1 1013248
21:00+7nw2393100 2.3 1014210
27 april, tue
tue2700:00+7w3792100 0.0 1014322
03:00+6wnw51094100 0.0 1014347
06:00+6w4894100 0.0 1015299
09:00+10wnw567732 0.0 1016699
12:00+12w56577 0.1 10161368
15:00+14w56435 0.1 10151854
18:00+12wnw344867 0.0 1015444
21:00+10nnw2353100 0.0 101672